DW1254 Weather Reports


Display with metric or nautical units.
time (UTC)temp
F
wind
direction
speed
MPH
gust
MPH
rain 1hr
in
rain 24hr
in
rain mn
in
humidity
%
barometer
mb
20210225021358 60 259 6.0 14.0 0.00 0.00 0.00 10 1015.6
20210225020519 60 255 8.0 15.0 0.00 0.00 0.00 10 1015.5
20210225015600 60 256 7.0 13.0 0.00 0.00 0.00 10 1015.4
20210225014658 60 257 7.0 13.0 0.00 0.00 0.00 11 1015.4
20210225013801 61 256 7.0 13.0 0.00 0.00 0.00 10 1015.1
20210225013121 61 259 9.0 15.0 0.00 0.00 0.00 10 1015.2
20210225011957 62 258 8.0 15.0 0.00 0.00 0.00 10 1014.9
20210225011057 62 256 7.0 14.0 0.00 0.00 0.00 10 1015.0
20210225010207 64 260 10.0 18.0 0.00 0.00 0.00 10 1014.8
20210225005258 64 266 9.0 17.0 0.00 0.00 0.00 9 1014.7
20210225004359 65 269 11.0 19.0 0.00 0.00 0.00 9 1014.6
20210225003510 65 264 13.0 24.0 0.00 0.00 0.00 8 1014.5
20210225002942 66 262 12.0 21.0 0.00 0.00 0.00 8 1014.4
20210225001659 67 266 11.0 21.0 0.00 0.00 0.00 8 1014.4
20210225000757 68 262 10.0 19.0 0.00 0.00 0.00 8 1014.3
20210224235904 68 280 11.0 20.0 0.00 0.00 0.00 8 1014.5
20210224235310 68 270 12.0 23.0 0.00 0.00 0.00 7 1014.7
20210224234059 68 275 10.0 23.0 0.00 0.00 0.00 7 1014.6
20210224233158 68 273 12.0 22.0 0.00 0.00 0.00 7 1014.7
20210224232300 68 273 13.0 24.0 0.00 0.00 0.00 7 1014.7
20210224231358 68 273 12.0 21.0 0.00 0.00 0.00 7 1014.5
20210224230457 69 265 11.0 21.0 0.00 0.00 0.00 6 1014.7
20210224225558 70 281 12.0 20.0 0.00 0.00 0.00 6 1014.7
20210224224701 70 272 11.0 19.0 0.00 0.00 0.00 7 1014.7
20210224223757 70 274 11.0 22.0 0.00 0.00 0.00 7 1014.8
20210224222954 71 275 10.0 22.0 0.00 0.00 0.00 7 1014.7
20210224221957 70 271 10.0 22.0 0.00 0.00 0.00 7 1014.8
20210224221057 70 279 12.0 20.0 0.00 0.00 0.00 7 1014.9
20210224220205 71 286 11.0 22.0 0.00 0.00 0.00 7 1014.8
20210224215439 70 291 11.0 25.0 0.00 0.00 0.00 7 1014.9
20210224214357 70 271 11.0 23.0 0.00 0.00 0.00 6 1015.0
20210224213510 70 279 12.0 21.0 0.00 0.00 0.00 6 1014.9
20210224212725 70 279 11.0 20.0 0.00 0.00 0.00 6 1014.9
20210224211658 71 269 10.0 22.0 0.00 0.00 0.00 6 1015.1
20210224210757 71 265 9.0 19.0 0.00 0.00 0.00 7 1015.2
20210224205904 70 275 9.0 17.0 0.00 0.00 0.00 7 1015.2
20210224205019 70 242 7.0 17.0 0.00 0.00 0.00 8 1015.5
20210224204057 69 249 9.0 17.0 0.00 0.00 0.00 8 1015.6
20210224203158 69 266 12.0 22.0 0.00 0.00 0.00 8 1016.1
20210224202257 69 277 9.0 18.0 0.00 0.00 0.00 8 1016.0
20210224201400 69 258 8.0 16.0 0.00 0.00 0.00 8 1016.3
20210224200459 69 270 11.0 21.0 0.00 0.00 0.00 8 1016.4
20210224195601 68 260 8.0 19.0 0.00 0.00 0.00 8 1016.4
20210224194659 68 237 9.0 20.0 0.00 0.00 0.00 9 1016.8
20210224193757 69 247 7.0 15.0 0.00 0.00 0.00 8 1017.0
20210224192925 68 227 6.0 12.0 0.00 0.00 0.00 9 1016.9
20210224191959 68 270 6.0 13.0 0.00 0.00 0.00 9 1017.0
20210224191058 67 246 6.0 14.0 0.00 0.00 0.00 9 1017.3
20210224190200 67 217 7.0 13.0 0.00 0.00 0.00 9 1017.5
20210224185419 66 214 7.0 14.0 0.00 0.00 0.00 10 1017.6
20210224184357 66 238 7.0 15.0 0.00 0.00 0.00 10 1017.9
20210224183459 65 225 4.0 13.0 0.00 0.00 0.00 10 1018.0
20210224182710 65 232 6.0 13.0 0.00 0.00 0.00 12 1018.3
20210224181657 65 203 7.0 13.0 0.00 0.00 0.00 12 1018.4
20210224180757 64 204 5.0 12.0 0.00 0.00 0.00 12 1018.5
20210224175858 64 210 5.0 11.0 0.00 0.00 0.00 12 1018.5
20210224175049 64 208 5.0 12.0 0.00 0.00 0.00 12 1018.7
20210224174058 63 223 4.0 10.0 0.00 0.00 0.00 12 1018.8
20210224173157 63 243 4.0 11.0 0.00 0.00 0.00 12 1018.7
20210224172257 62 242 4.0 11.0 0.00 0.00 0.00 11 1018.8
20210224171357 62 221 3.0 8.0 0.00 0.00 0.00 12 1018.8
20210224170512 62 194 4.0 8.0 0.00 0.00 0.00 13 1018.8
20210224165557 62 213 4.0 9.0 0.00 0.00 0.00 13 1018.9
20210224164702 62 240 2.0 7.0 0.00 0.00 0.00 12 1018.8
20210224163757 61 267 2.0 8.0 0.00 0.00 0.00 13 1018.9
20210224162857 61 277 3.0 7.0 0.00 0.00 0.00 14 1018.9
20210224162000 60 285 2.0 6.0 0.00 0.00 0.00 14 1019.0
20210224161101 60 269 2.0 7.0 0.00 0.00 0.00 15 1019.1
20210224160159 60 277 2.0 5.0 0.00 0.00 0.00 16 1019.2
20210224155345 59 268 2.0 8.0 0.00 0.00 0.00 15 1019.1
20210224154357 59 270 1.0 5.0 0.00 0.00 0.00 15 1019.0
20210224153506 59 352 1.0 4.0 0.00 0.00 0.00 17 1019.0
20210224152624 58 352 1.0 4.0 0.00 0.00 0.00 19 1018.5
20210224151659 56 0 0.0 0.0 0.00 0.00 0.00 20 1018.5
20210224150802 53 0 0.0 0.0 0.00 0.00 0.00 21 1018.5
20210224145857 51 0 0.0 0.0 0.00 0.00 0.00 22 1018.5
20210224145143 49 0 0.0 0.0 0.00 0.00 0.00 24 1018.5
20210224144058 47 0 0.0 0.0 0.00 0.00 0.00 26 1018.4
20210224143159 45 0 0.0 0.0 0.00 0.00 0.00 27 1018.2
20210224142258 43 0 0.0 0.0 0.00 0.00 0.00 27 1018.0
20210224141357 40 0 0.0 0.0 0.00 0.00 0.00 28 1018.0
20210224140458 37 0 0.0 0.0 0.00 0.00 0.00 30 1018.1
20210224135557 36 0 0.0 0.0 0.00 0.00 0.00 30 1017.6
20210224134658 38 0 0.0 0.0 0.00 0.00 0.00 29 1017.8
20210224133758 40 0 0.0 0.0 0.00 0.00 0.00 27 1017.7
20210224133026 41 0 0.0 0.0 0.00 0.00 0.00 26 1017.8
20210224131101 36 0 0.0 0.0 0.00 0.00 0.00 32 1017.3
20210224130202 34 0 0.0 0.0 0.00 0.00 0.00 33 1017.1
20210224125522 34 0 0.0 0.0 0.00 0.00 0.00 33 1017.1
20210224124358 36 0 0.0 0.0 0.00 0.00 0.00 31 1017.4
20210224123525 36 0 0.0 0.0 0.00 0.00 0.00 30 1017.4
20210224122832 36 0 0.0 0.0 0.00 0.00 0.00 31 1017.4
20210224121657 37 0 0.0 0.0 0.00 0.00 0.00 30 1017.3
20210224120801 38 0 0.0 0.0 0.00 0.00 0.00 28 1017.3
20210224115859 40 0 0.0 0.0 0.00 0.00 0.00 26 1017.3
20210224115216 42 0 0.0 0.0 0.00 0.00 0.00 25 1017.2
20210224114057 42 0 0.0 0.0 0.00 0.00 0.00 25 1017.1
20210224113159 46 318 1.0 6.0 0.00 0.00 0.00 23 1017.1
20210224112256 46 316 1.0 6.0 0.00 0.00 0.00 23 1017.3
20210224111357 45 308 0.0 3.0 0.00 0.00 0.00 23 1017.3
20210224110459 49 312 1.0 4.0 0.00 0.00 0.00 20 1017.3
20210224105556 50 313 1.0 6.0 0.00 0.00 0.00 20 1016.9
20210224104658 50 333 1.0 4.0 0.00 0.00 0.00 21 1016.9
20210224103759 49 337 2.0 5.0 0.00 0.00 0.00 21 1016.8
20210224102856 49 336 2.0 4.0 0.00 0.00 0.00 21 1016.8
20210224102022 48 337 2.0 3.0 0.00 0.00 0.00 21 1016.8
20210224101057 48 332 1.0 3.0 0.00 0.00 0.00 21 1016.7
20210224100158 48 324 1.0 3.0 0.00 0.00 0.00 21 1016.8
20210224095326 47 326 1.0 3.0 0.00 0.00 0.00 22 1016.8
20210224094358 46 0 0.0 0.0 0.00 0.00 0.00 23 1016.9
20210224093518 45 0 0.0 0.0 0.00 0.00 0.00 22 1017.0
20210224092636 47 0 0.0 0.0 0.00 0.00 0.00 21 1017.0
20210224091657 48 0 0.0 0.0 0.00 0.00 0.00 20 1017.1
20210224090805 48 0 0.0 0.0 0.00 0.00 0.00 20 1017.3
20210224085913 47 0 0.0 0.0 0.00 0.00 0.00 21 1017.0
20210224085126 48 271 0.0 2.0 0.00 0.00 0.00 21 1017.1
20210224084057 46 270 2.0 3.0 0.00 0.00 0.00 21 1017.1
20210224083207 44 277 0.0 2.0 0.00 0.00 0.00 22 1017.2
20210224082257 45 0 0.0 0.0 0.00 0.00 0.00 22 1017.3
20210224081405 46 0 0.0 0.0 0.00 0.00 0.00 21 1017.2
20210224075600 46 0 0.0 0.0 0.00 0.00 0.00 20 1017.3
20210224074658 49 0 0.0 0.0 0.00 0.00 0.00 19 1017.3
20210224072901 52 313 1.0 3.0 0.00 0.00 0.00 18 1017.5
20210224071059 52 313 2.0 6.0 0.00 0.00 0.00 18 1017.5
20210224070159 52 306 2.0 6.0 0.00 0.00 0.00 18 1017.3
20210224065420 50 323 2.0 5.0 0.00 0.00 0.00 19 1017.3
20210224063458 50 0 0.0 0.0 0.00 0.00 0.00 19 1017.4
20210224062653 50 0 0.0 0.0 0.00 0.00 0.00 18 1017.5
20210224061657 50 346 0.0 2.0 0.00 0.00 0.00 18 1017.6
20210224060759 50 339 1.0 4.0 0.00 0.00 0.00 18 1017.6
20210224055857 51 336 1.0 4.0 0.00 0.00 0.00 18 1017.7
20210224055057 51 331 1.0 4.0 0.00 0.00 0.00 17 1017.8
20210224054057 52 327 1.0 4.0 0.00 0.00 0.00 16 1017.9
20210224053157 54 320 1.0 5.0 0.00 0.00 0.00 16 1017.9
20210224052257 55 318 3.0 9.0 0.00 0.00 0.00 16 1018.0
20210224050456 56 315 4.0 9.0 0.00 0.00 0.00 15 1018.0
20210224045601 56 317 5.0 9.0 0.00 0.00 0.00 15 1017.5
20210224044658 56 311 5.0 10.0 0.00 0.00 0.00 15 1017.5
20210224043759 56 314 5.0 8.0 0.00 0.00 0.00 15 1017.4
20210224042903 55 315 4.0 8.0 0.00 0.00 0.00 15 1017.3
20210224041956 55 324 3.0 6.0 0.00 0.00 0.00 15 1017.1
20210224041100 55 326 3.0 6.0 0.00 0.00 0.00 15 1017.1
20210224040200 54 328 3.0 7.0 0.00 0.00 0.00 15 1016.9
20210224035258 54 329 3.0 8.0 0.00 0.00 0.00 15 1016.8
20210224034356 54 329 3.0 7.0 0.00 0.00 0.00 15 1016.6
20210224033456 54 330 3.0 7.0 0.00 0.00 0.00 15 1016.5
20210224032715 54 330 3.0 8.0 0.00 0.00 0.00 15 1016.6
20210224031657 54 330 4.0 7.0 0.00 0.00 0.00 15 1016.6
20210224030756 55 328 4.0 9.0 0.00 0.00 0.00 15 1016.5
20210224025857 55 329 4.0 9.0 0.00 0.00 0.00 15 1016.2
20210224025129 56 329 4.0 9.0 0.00 0.00 0.00 14 1016.3
20210224024056 56 323 4.0 9.0 0.00 0.00 0.00 14 1016.3
20210224023157 57 326 4.0 9.0 0.00 0.00 0.00 13 1016.2
20210224022328 58 328 4.0 12.0 0.00 0.00 0.00 13 1016.1